Cosmos 2263 Rocket - Orbit

View from above orbital plane
View from above orbital plane
View from above satellite
View from above satellite

Ground track
Ground track

The orbit data is extracted from the following two-line orbital elements,

1 22803U 93059B   13138.55989140 -.00000088  00000-0 -19830-4 0    71
2 22803 070.9890 150.1902 0015442 140.7632 219.4614 14.16620836 17177
Epoch (UTC): 18 May 2013 13:26:14
Eccentricity: 0.0015442
inclination: 70.9890°
perigee height: 825 km
apogee height: 848 km
right ascension of ascending node: 150.1902°
argument of perigee: 140.7632°
revolutions per day: 14.16620836
mean anomaly at epoch: 219.4614°
orbit number at epoch: 1717

The dashed part of the orbit path shows where the satellite is in the earth's shadow,  

Developed and maintained by Chris Peat, Heavens-Above GmbH. Please read the updated FAQ before sending e-mail. Imprint. DLR